QPF
0.00 0.00 0.00 0.00 0.00 0.00 0.00 0.00 0.00 0.00 0.00 0.00 0.00 0.00 0.01 0.00 0.01 0.00 0.00 0.00 0.00 0.00 0.00 0.00 0.00 0.00 0.00 0.00 0.00 0.00 0.00 0.00 0.00 0.00 0.00 0.00 0.00 0.00 0.00 0.00 0.00 0.00 0.00 0.00 0.00 0.00 0.00 0.00 0.00
0.00 0.00 0.00 0.00 0.00 0.00 0.00 0.00 0.00 0.00 0.00 0.00 0.01 0.01 0.00 0.00 0.00 0.00 0.00 0.00 0.00 0.00 0.00 0.00 0.00 0.00 0.00 0.00 0.00 0.00 0.00 0.00 0.00 0.00 0.00 0.00 0.00 0.00 0.00 0.00 0.00 0.00 0.00 0.00 0.00 0.00 0.00 0.00 0.00
0.00 0.00 0.00 0.00 0.00 0.00 0.00 0.00 0.00 0.00 0.01 0.01 0.01 0.01 0.00 0.00 0.00 0.00 0.00 0.00 0.00 0.00 0.00 0.00 0.00 0.00 0.00 0.00 0.00 0.00 0.00 0.00 0.00 0.00 0.00 0.00 0.00 0.00 0.00 0.00 0.00 0.00 0.00 0.00 0.00 0.00 0.00 0.00 0.00
0.00 0.00 0.00 0.00 0.00 0.00 0.00 0.00 0.00 0.00 0.01 0.01 0.01 0.01 0.00 0.00 0.00 0.00 0.00 0.00 0.00 0.00 0.00 0.00 0.00 0.00 0.00 0.00 0.00 0.00 0.00 0.00 0.00 0.00 0.00 0.00 0.00 0.00 0.00 0.00 0.00 0.00 0.00 0.00 0.00 0.00 0.00 0.00 0.00
0.00 0.00 0.00 0.00 0.00 0.00 0.00 0.00 0.00 0.00 0.01 0.01 0.01 0.00 0.00 0.00 0.00 0.00 0.00 0.00 0.00 0.00 0.00 0.00 0.00 0.00 0.00 0.00 0.00 0.00 0.00 0.00 0.00 0.00 0.00 0.00 0.00 0.00 0.00 0.00 0.00 0.00 0.00 0.00 0.00 0.00 0.00 0.00 0.00
0.00 0.00 0.00 0.00 0.00 0.00 0.00 0.00 0.00 0.00 0.00 0.01 0.00 0.00 0.00 0.00 0.00 0.00 0.00 0.00 0.00 0.00 0.00 0.00 0.00 0.00 0.00 0.00 0.00 0.00 0.00 0.00 0.00 0.00 0.00 0.00 0.00 0.00 0.00 0.00 0.00 0.00 0.00 0.00 0.00 0.00 0.00 0.00 0.00
0.00 0.00 0.00 0.00 0.00 0.00 0.00 0.00 0.00 0.00 0.00 0.00 0.00 0.00 0.00 0.00 0.00 0.00 0.00 0.00 0.00 0.00 0.00 0.00 0.00 0.00 0.00 0.00 0.00 0.00 0.00 0.00 0.00 0.00 0.00 0.00 0.00 0.00 0.00 0.00 0.00 0.00 0.00 0.00 0.00 0.00 0.00 0.00 0.00
0.00 0.00 0.00 0.00 0.00 0.00 0.00 0.00 0.00 0.00 0.00 0.00 0.00 0.00 0.00 0.00 0.00 0.00 0.00 0.00 0.00 0.00 0.00 0.00 0.00 0.00 0.00 0.00 0.00 0.00 0.00 0.00 0.00 0.00 0.00 0.00 0.00 0.00 0.00 0.00 0.00 0.00 0.00 0.00 0.00 0.00 0.00 0.00 0.00
0.00 0.00 0.00 0.00 0.00 0.00 0.00 0.00 0.00 0.00 0.00 0.00 0.00 0.00 0.00 0.00 0.00 0.00 0.00 0.00 0.00 0.00 0.00 0.00 0.00 0.00 0.00 0.00 0.00 0.00 0.00 0.00 0.00 0.00 0.00 0.00 0.00 0.00 0.00 0.00 0.00 0.00 0.00 0.00 0.00 0.00 0.00 0.00 0.00
0.00 0.00 0.00 0.00 0.00 0.00 0.00 0.00 0.00 0.00 0.00 0.00 0.00 0.00 0.00 0.00 0.00 0.00 0.00 0.00 0.00 0.00 0.00 0.00 0.00 0.00 0.00 0.00 0.00 0.00 0.00 0.00 0.00 0.00 0.00 0.00 0.00 0.00 0.00 0.00 0.00 0.00 0.00 0.00 0.00 0.01 0.01 0.01 0.00
0.00 0.00 0.00 0.00 0.00 0.00 0.00 0.00 0.00 0.00 0.00 0.00 0.00 0.00 0.00 0.00 0.00 0.00 0.00 0.00 0.00 0.00 0.00 0.00 0.00 0.00 0.00 0.00 0.00 0.00 0.00 0.00 0.00 0.00 0.00 0.00 0.00 0.00 0.00 0.00 0.00 0.00 0.00 0.00 0.00 0.01 0.00 0.00 0.00
0.00 0.00 0.00 0.00 0.00 0.00 0.00 0.00 0.00 0.00 0.00 0.00 0.00 0.00 0.00 0.00 0.00 0.00 0.00 0.00 0.00 0.00 0.00 0.00 0.00 0.00 0.00 0.00 0.00 0.00 0.00 0.00 0.00 0.00 0.00 0.00 0.00 0.00 0.00 0.00 0.00 0.00 0.01 0.00 0.00 0.00 0.00 0.01 0.01
0.00 0.00 0.00 0.00 0.00 0.00 0.00 0.00 0.00 0.00 0.00 0.00 0.00 0.00 0.00 0.00 0.00 0.00 0.00 0.00 0.00 0.00 0.00 0.00 0.00 0.00 0.00 0.00 0.00 0.00 0.00 0.00 0.00 0.00 0.00 0.00 0.00 0.00 0.00 0.00 0.01 0.01 0.01 0.01 0.00 0.01 0.01 0.01 0.01
0.00 0.00 0.00 0.00 0.00 0.00 0.00 0.00 0.00 0.00 0.00 0.00 0.00 0.00 0.00 0.00 0.00 0.00 0.00 0.00 0.01 0.01 0.01 0.00 0.00 0.00 0.00 0.00 0.00 0.00 0.00 0.00 0.00 0.00 0.00 0.00 0.00 0.00 0.00 0.01 0.01 0.03 0.02 0.02 0.02 0.01 0.01 0.01 0.00
0.00 0.00 0.00 0.00 0.00 0.00 0.00 0.00 0.00 0.00 0.00 0.00 0.00 0.00 0.00 0.00 0.00 0.00 0.00 0.01 0.01 0.02 0.02 0.01 0.00 0.00 0.00 0.00 0.00 0.00 0.00 0.00 0.00 0.00 0.00 0.00 0.01 0.01 0.01 0.03 0.05 0.05 0.04 0.03 0.03 0.03 0.01 0.01 0.01
0.00 0.00 0.00 0.00 0.00 0.00 0.00 0.00 0.00 0.00 0.00 0.00 0.00 0.00 0.00 0.00 0.00 0.00 0.00 0.01 0.02 0.02 0.02 0.02 0.01 0.01 0.01 0.01 0.01 0.01 0.02 0.02 0.02 0.02 0.02 0.03 0.04 0.05 0.05 0.05 0.06 0.07 0.06 0.05 0.05 0.03 0.02 0.02 0.02
0.00 0.00 0.00 0.00 0.00 0.00 0.00 0.00 0.00 0.00 0.00 0.00 0.00 0.00 0.00 0.00 0.00 0.00 0.00 0.01 0.02 0.03 0.03 0.03 0.03 0.02 0.02 0.02 0.03 0.04 0.06 0.08 0.09 0.09 0.08 0.07 0.08 0.08 0.06 0.06 0.08 0.10 0.09 0.08 0.06 0.04 0.04 0.03 0.03
0.00 0.00 0.00 0.00 0.00 0.00 0.00 0.00 0.00 0.00 0.00 0.00 0.00 0.00 0.00 0.00 0.00 0.01 0.01 0.01 0.01 0.02 0.03 0.03 0.03 0.03 0.04 0.06 0.08 0.10 0.13 0.15 0.18 0.22 0.23 0.19 0.15 0.13 0.13 0.13 0.14 0.12 0.12 0.10 0.08 0.06 0.05 0.03 0.03
0.00 0.00 0.00 0.00 0.00 0.00 0.00 0.00 0.00 0.00 0.00 0.00 0.00 0.00 0.00 0.00 0.00 0.01 0.01 0.01 0.02 0.02 0.02 0.02 0.02 0.04 0.09 0.19 0.21 0.20 0.24 0.25 0.24 0.21 0.23 0.23 0.23 0.22 0.22 0.21 0.20 0.17 0.15 0.12 0.09 0.07 0.06 0.05 0.05
0.00 0.00 0.00 0.00 0.00 0.00 0.00 0.00 0.00 0.00 0.00 0.00 0.00 0.00 0.00 0.00 0.00 0.00 0.01 0.01 0.02 0.02 0.03 0.03 0.04 0.08 0.16 0.25 0.29 0.32 0.34 0.33 0.37 0.36 0.35 0.34 0.32 0.32 0.32 0.27 0.26 0.22 0.18 0.14 0.11 0.10 0.09 0.07 0.06
0.00 0.00 0.00 0.00 0.00 0.00 0.00 0.00 0.00 0.00 0.00 0.00 0.00 0.00 0.00 0.01 0.01 0.01 0.01 0.02 0.03 0.04 0.04 0.05 0.06 0.13 0.25 0.33 0.37 0.40 0.40 0.40 0.39 0.38 0.40 0.42 0.43 0.43 0.39 0.35 0.29 0.25 0.19 0.16 0.14 0.12 0.09 0.07 0.07
0.00 0.00 0.00 0.00 0.00 0.00 0.00 0.00 0.01 0.01 0.01 0.01 0.01 0.01 0.01 0.01 0.02 0.03 0.03 0.04 0.05 0.06 0.06 0.06 0.08 0.12 0.20 0.32 0.44 0.49 0.49 0.51 0.51 0.50 0.50 0.50 0.46 0.40 0.37 0.32 0.29 0.25 0.20 0.16 0.13 0.10 0.08 0.07 0.06
0.00 0.00 0.00 0.00 0.00 0.00 0.00 0.00 0.02 0.03 0.02 0.02 0.02 0.02 0.02 0.03 0.03 0.04 0.04 0.05 0.05 0.06 0.08 0.08 0.10 0.14 0.20 0.28 0.42 0.52 0.59 0.62 0.59 0.53 0.52 0.51 0.41 0.33 0.29 0.25 0.23 0.21 0.17 0.14 0.11 0.09 0.08 0.08 0.08
0.00 0.00 0.00 0.00 0.00 0.00 0.00 0.00 0.02 0.03 0.02 0.02 0.03 0.03 0.03 0.04 0.05 0.06 0.05 0.06 0.07 0.08 0.09 0.12 0.17 0.22 0.27 0.36 0.46 0.52 0.54 0.54 0.50 0.46 0.40 0.37 0.31 0.27 0.24 0.20 0.17 0.14 0.13 0.12 0.11 0.10 0.10 0.09 0.06
0.00 0.00 0.00 0.00 0.00 0.00 0.00 0.01 0.03 0.03 0.02 0.02 0.02 0.03 0.04 0.05 0.06 0.06 0.08 0.11 0.13 0.13 0.15 0.17 0.23 0.30 0.34 0.40 0.45 0.46 0.45 0.44 0.43 0.43 0.39 0.32 0.27 0.22 0.19 0.16 0.12 0.09 0.08 0.08 0.06 0.05 0.04 0.03 0.02
0.00 0.00 0.00 0.00 0.00 0.00 0.01 0.02 0.04 0.03 0.02 0.02 0.02 0.03 0.03 0.05 0.06 0.08 0.11 0.13 0.15 0.17 0.19 0.23 0.29 0.35 0.37 0.36 0.39 0.39 0.35 0.35 0.36 0.35 0.30 0.25 0.22 0.18 0.13 0.09 0.06 0.04 0.03 0.03 0.02 0.02 0.03 0.03 0.03
0.00 0.00 0.00 0.00 0.00 0.00 0.01 0.03 0.06 0.05 0.03 0.03 0.02 0.03 0.03 0.04 0.06 0.08 0.09 0.10 0.12 0.16 0.20 0.23 0.27 0.33 0.32 0.29 0.27 0.27 0.28 0.28 0.26 0.23 0.19 0.17 0.13 0.09 0.06 0.03 0.02 0.01 0.01 0.02 0.03 0.03 0.03 0.02 0.02
0.00 0.00 0.00 0.00 0.00 0.00 0.01 0.03 0.05 0.05 0.04 0.04 0.03 0.02 0.03 0.03 0.04 0.05 0.07 0.10 0.11 0.12 0.14 0.16 0.18 0.22 0.24 0.23 0.21 0.20 0.20 0.18 0.16 0.14 0.12 0.10 0.09 0.06 0.04 0.03 0.02 0.01 0.01 0.01 0.01 0.01 0.00 0.00 0.00
0.00 0.00 0.00 0.00 0.00 0.00 0.01 0.03 0.07 0.09 0.06 0.04 0.03 0.03 0.03 0.03 0.03 0.04 0.05 0.05 0.06 0.07 0.08 0.09 0.11 0.13 0.13 0.14 0.14 0.14 0.13 0.13 0.12 0.11 0.08 0.07 0.05 0.04 0.02 0.02 0.01 0.01 0.00 0.00 0.00 0.00 0.00 0.00 0.00
0.00 0.00 0.00 0.00 0.00 0.00 0.01 0.04 0.07 0.10 0.07 0.05 0.05 0.05 0.06 0.07 0.07 0.07 0.07 0.07 0.05 0.05 0.06 0.07 0.09 0.10 0.10 0.09 0.08 0.09 0.08 0.07 0.06 0.06 0.05 0.04 0.03 0.02 0.02 0.01 0.01 0.01 0.00 0.00 0.00 0.00 0.00 0.00 0.00
MSLP
1010.45 1011.43 1012.60 1013.76 1014.73 1015.37 1015.59 1015.40 1014.89 1014.20 1013.46 1012.83 1012.36 1012.09 1011.99 1011.99 1012.02 1012.02 1011.99 1011.93 1011.88 1011.90 1012.03 1012.28 1012.62 1013.02 1013.41 1013.76 1014.04 1014.24 1014.41 1014.57 1014.78 1015.06 1015.42 1015.83 1016.25 1016.65 1016.97 1017.22 1017.38 1017.50 1017.60 1017.71 1017.84 1018.01 1018.19 1018.35 1018.47
1010.85 1011.99 1013.25 1014.42 1015.31 1015.78 1015.78 1015.36 1014.61 1013.70 1012.80 1012.04 1011.50 1011.19 1011.08 1011.09 1011.14 1011.19 1011.21 1011.22 1011.26 1011.39 1011.63 1012.00 1012.47 1012.98 1013.48 1013.92 1014.27 1014.53 1014.73 1014.93 1015.15 1015.44 1015.78 1016.17 1016.56 1016.91 1017.18 1017.38 1017.51 1017.61 1017.70 1017.82 1017.97 1018.15 1018.34 1018.49 1018.60
1011.41 1012.64 1013.91 1015.01 1015.76 1016.05 1015.85 1015.22 1014.29 1013.25 1012.26 1011.46 1010.90 1010.60 1010.51 1010.53 1010.61 1010.67 1010.71 1010.75 1010.84 1011.03 1011.35 1011.80 1012.37 1012.97 1013.56 1014.07 1014.49 1014.80 1015.05 1015.27 1015.50 1015.78 1016.11 1016.46 1016.80 1017.09 1017.32 1017.47 1017.57 1017.65 1017.75 1017.88 1018.06 1018.26 1018.46 1018.63 1018.73
1012.07 1013.33 1014.54 1015.51 1016.09 1016.17 1015.79 1015.00 1013.97 1012.88 1011.89 1011.13 1010.63 1010.38 1010.33 1010.39 1010.48 1010.54 1010.57 1010.61 1010.71 1010.92 1011.27 1011.77 1012.38 1013.04 1013.67 1014.23 1014.69 1015.04 1015.31 1015.55 1015.79 1016.06 1016.36 1016.68 1016.98 1017.23 1017.41 1017.54 1017.62 1017.70 1017.80 1017.96 1018.16 1018.39 1018.61 1018.80 1018.91
1012.80 1014.00 1015.09 1015.88 1016.25 1016.15 1015.60 1014.72 1013.66 1012.60 1011.69 1011.03 1010.64 1010.49 1010.52 1010.62 1010.72 1010.78 1010.80 1010.81 1010.89 1011.08 1011.43 1011.92 1012.53 1013.19 1013.83 1014.40 1014.86 1015.22 1015.50 1015.74 1015.98 1016.24 1016.53 1016.83 1017.11 1017.34 1017.51 1017.62 1017.71 1017.79 1017.91 1018.09 1018.31 1018.56 1018.80 1019.00 1019.13
1013.51 1014.60 1015.50 1016.08 1016.23 1015.95 1015.29 1014.36 1013.33 1012.36 1011.59 1011.08 1010.84 1010.82 1010.93 1011.09 1011.22 1011.28 1011.28 1011.27 1011.32 1011.48 1011.78 1012.24 1012.81 1013.42 1014.02 1014.55 1014.99 1015.33 1015.60 1015.84 1016.08 1016.35 1016.64 1016.94 1017.23 1017.46 1017.65 1017.77 1017.87 1017.97 1018.11 1018.29 1018.52 1018.78 1019.03 1019.23 1019.37
1014.12 1015.05 1015.73 1016.08 1016.03 1015.59 1014.84 1013.92 1012.96 1012.13 1011.51 1011.17 1011.09 1011.19 1011.41 1011.63 1011.79 1011.86 1011.87 1011.85 1011.88 1012.00 1012.26 1012.66 1013.16 1013.70 1014.23 1014.70 1015.08 1015.38 1015.63 1015.87 1016.12 1016.40 1016.72 1017.04 1017.35 1017.62 1017.83 1017.99 1018.11 1018.23 1018.37 1018.56 1018.77 1019.02 1019.25 1019.45 1019.58
1014.57 1015.30 1015.76 1015.88 1015.64 1015.08 1014.29 1013.39 1012.53 1011.84 1011.39 1011.20 1011.25 1011.47 1011.77 1012.05 1012.25 1012.36 1012.39 1012.39 1012.42 1012.54 1012.76 1013.10 1013.53 1013.99 1014.43 1014.82 1015.15 1015.41 1015.64 1015.87 1016.13 1016.44 1016.79 1017.15 1017.50 1017.81 1018.06 1018.25 1018.40 1018.53 1018.67 1018.84 1019.03 1019.23 1019.43 1019.59 1019.71
1014.81 1015.35 1015.59 1015.51 1015.12 1014.47 1013.66 1012.81 1012.06 1011.49 1011.17 1011.11 1011.26 1011.56 1011.91 1012.24 1012.50 1012.66 1012.74 1012.79 1012.85 1012.98 1013.19 1013.49 1013.86 1014.25 1014.62 1014.94 1015.21 1015.44 1015.66 1015.89 1016.17 1016.50 1016.88 1017.28 1017.67 1018.01 1018.30 1018.52 1018.69 1018.83 1018.95 1019.09 1019.23 1019.38 1019.53 1019.65 1019.74
1014.86 1015.20 1015.25 1015.00 1014.49 1013.80 1013.00 1012.22 1011.56 1011.10 1010.88 1010.89 1011.09 1011.42 1011.81 1012.17 1012.47 1012.69 1012.85 1012.96 1013.09 1013.26 1013.49 1013.79 1014.12 1014.46 1014.78 1015.06 1015.30 1015.51 1015.72 1015.97 1016.26 1016.61 1017.00 1017.42 1017.83 1018.20 1018.50 1018.74 1018.92 1019.05 1019.16 1019.27 1019.37 1019.46 1019.55 1019.63 1019.69
1014.74 1014.91 1014.79 1014.42 1013.84 1013.13 1012.38 1011.68 1011.10 1010.72 1010.55 1010.58 1010.79 1011.12 1011.49 1011.87 1012.21 1012.49 1012.72 1012.93 1013.14 1013.37 1013.64 1013.95 1014.27 1014.60 1014.90 1015.16 1015.40 1015.61 1015.84 1016.10 1016.40 1016.75 1017.15 1017.56 1017.95 1018.31 1018.62 1018.86 1019.04 1019.17 1019.27 1019.35 1019.42 1019.48 1019.53 1019.57 1019.60
1014.52 1014.53 1014.28 1013.83 1013.22 1012.54 1011.85 1011.22 1010.72 1010.38 1010.23 1010.25 1010.42 1010.71 1011.05 1011.42 1011.78 1012.12 1012.43 1012.72 1013.01 1013.32 1013.64 1013.97 1014.31 1014.65 1014.96 1015.24 1015.50 1015.74 1016.00 1016.27 1016.58 1016.92 1017.28 1017.65 1018.01 1018.33 1018.61 1018.84 1019.02 1019.16 1019.26 1019.34 1019.41 1019.46 1019.49 1019.52 1019.54
1014.26 1014.13 1013.79 1013.29 1012.69 1012.05 1011.44 1010.89 1010.45 1010.14 1009.98 1009.96 1010.07 1010.29 1010.58 1010.93 1011.30 1011.67 1012.04 1012.41 1012.77 1013.13 1013.49 1013.86 1014.22 1014.58 1014.92 1015.25 1015.56 1015.85 1016.14 1016.44 1016.74 1017.05 1017.37 1017.68 1017.97 1018.24 1018.48 1018.69 1018.87 1019.02 1019.15 1019.26 1019.36 1019.43 1019.49 1019.53 1019.56
1014.02 1013.78 1013.37 1012.85 1012.28 1011.71 1011.18 1010.70 1010.31 1010.02 1009.83 1009.76 1009.79 1009.93 1010.17 1010.48 1010.84 1011.23 1011.64 1012.05 1012.44 1012.84 1013.22 1013.61 1013.99 1014.37 1014.76 1015.14 1015.52 1015.88 1016.23 1016.55 1016.85 1017.13 1017.38 1017.62 1017.83 1018.04 1018.23 1018.42 1018.61 1018.79 1018.97 1019.14 1019.29 1019.42 1019.53 1019.62 1019.70
1013.84 1013.50 1013.05 1012.54 1012.02 1011.53 1011.07 1010.66 1010.31 1010.01 1009.79 1009.65 1009.61 1009.68 1009.85 1010.12 1010.46 1010.86 1011.27 1011.68 1012.09 1012.47 1012.84 1013.22 1013.60 1014.01 1014.44 1014.89 1015.34 1015.78 1016.19 1016.56 1016.87 1017.12 1017.32 1017.48 1017.62 1017.76 1017.91 1018.08 1018.29 1018.51 1018.75 1019.00 1019.23 1019.45 1019.63 1019.79 1019.92
1013.73 1013.33 1012.85 1012.37 1011.91 1011.49 1011.10 1010.75 1010.41 1010.11 1009.85 1009.65 1009.54 1009.53 1009.65 1009.88 1010.19 1010.57 1010.96 1011.35 1011.71 1012.05 1012.38 1012.72 1013.08 1013.49 1013.96 1014.47 1015.00 1015.53 1016.02 1016.44 1016.78 1017.03 1017.19 1017.30 1017.39 1017.47 1017.59 1017.75 1017.97 1018.24 1018.55 1018.87 1019.19 1019.49 1019.76 1020.00 1020.20
1013.67 1013.24 1012.78 1012.35 1011.95 1011.60 1011.28 1010.96 1010.63 1010.30 1009.99 1009.73 1009.55 1009.49 1009.56 1009.75 1010.03 1010.37 1010.73 1011.06 1011.36 1011.62 1011.87 1012.14 1012.46 1012.86 1013.35 1013.92 1014.53 1015.15 1015.74 1016.23 1016.62 1016.89 1017.05 1017.14 1017.19 1017.24 1017.33 1017.50 1017.73 1018.04 1018.39 1018.78 1019.17 1019.55 1019.89 1020.20 1020.47
1013.65 1013.23 1012.82 1012.46 1012.14 1011.87 1011.59 1011.30 1010.96 1010.60 1010.23 1009.90 1009.66 1009.55 1009.57 1009.72 1009.97 1010.28 1010.58 1010.84 1011.06 1011.23 1011.38 1011.57 1011.83 1012.20 1012.70 1013.31 1014.00 1014.72 1015.40 1015.99 1016.45 1016.77 1016.96 1017.06 1017.10 1017.14 1017.23 1017.38 1017.63 1017.95 1018.33 1018.76 1019.19 1019.61 1020.01 1020.37 1020.69
1013.61 1013.26 1012.94 1012.68 1012.47 1012.27 1012.04 1011.76 1011.41 1011.00 1010.57 1010.18 1009.88 1009.72 1009.70 1009.82 1010.04 1010.30 1010.55 1010.74 1010.87 1010.94 1010.99 1011.08 1011.28 1011.61 1012.11 1012.76 1013.52 1014.32 1015.10 1015.79 1016.34 1016.74 1016.99 1017.12 1017.19 1017.23 1017.32 1017.47 1017.70 1018.01 1018.39 1018.82 1019.26 1019.69 1020.11 1020.50 1020.85
1013.53 1013.29 1013.12 1012.99 1012.90 1012.79 1012.62 1012.35 1011.98 1011.52 1011.04 1010.58 1010.23 1010.02 1009.97 1010.06 1010.25 1010.47 1010.67 1010.80 1010.85 1010.83 1010.79 1010.80 1010.92 1011.22 1011.70 1012.37 1013.18 1014.06 1014.93 1015.72 1016.37 1016.86 1017.18 1017.37 1017.47 1017.54 1017.62 1017.76 1017.97 1018.25 1018.60 1018.99 1019.40 1019.81 1020.22 1020.61 1020.97
1013.37 1013.30 1013.30 1013.35 1013.41 1013.41 1013.30 1013.05 1012.67 1012.17 1011.63 1011.13 1010.72 1010.47 1010.40 1010.46 1010.63 1010.83 1010.99 1011.08 1011.06 1010.97 1010.86 1010.79 1010.86 1011.12 1011.58 1012.26 1013.10 1014.04 1014.98 1015.85 1016.59 1017.16 1017.56 1017.81 1017.96 1018.05 1018.14 1018.25 1018.43 1018.66 1018.95 1019.28 1019.64 1020.01 1020.38 1020.75 1021.10
1013.12 1013.25 1013.46 1013.70 1013.93 1014.05 1014.03 1013.82 1013.44 1012.92 1012.35 1011.80 1011.37 1011.09 1011.00 1011.05 1011.21 1011.39 1011.53 1011.59 1011.53 1011.40 1011.24 1011.13 1011.15 1011.37 1011.81 1012.48 1013.33 1014.29 1015.28 1016.21 1017.01 1017.65 1018.12 1018.43 1018.62 1018.73 1018.81 1018.91 1019.05 1019.22 1019.45 1019.71 1020.00 1020.31 1020.64 1020.97 1021.31
1012.81 1013.14 1013.57 1014.02 1014.41 1014.67 1014.74 1014.59 1014.23 1013.72 1013.13 1012.58 1012.13 1011.85 1011.75 1011.80 1011.96 1012.14 1012.28 1012.32 1012.25 1012.10 1011.92 1011.78 1011.78 1011.97 1012.39 1013.03 1013.87 1014.82 1015.82 1016.77 1017.61 1018.29 1018.80 1019.15 1019.37 1019.50 1019.59 1019.66 1019.76 1019.89 1020.05 1020.25 1020.48 1020.73 1021.01 1021.31 1021.62
1012.48 1013.01 1013.62 1014.26 1014.81 1015.20 1015.37 1015.29 1014.97 1014.49 1013.94 1013.40 1012.97 1012.70 1012.61 1012.68 1012.84 1013.03 1013.17 1013.22 1013.17 1013.02 1012.84 1012.71 1012.69 1012.86 1013.25 1013.86 1014.66 1015.58 1016.54 1017.48 1018.31 1019.00 1019.53 1019.90 1020.15 1020.29 1020.38 1020.45 1020.52 1020.62 1020.74 1020.89 1021.07 1021.28 1021.52 1021.78 1022.06
1012.19 1012.87 1013.65 1014.42 1015.10 1015.60 1015.86 1015.85 1015.60 1015.18 1014.68 1014.20 1013.81 1013.58 1013.52 1013.61 1013.79 1013.99 1014.15 1014.23 1014.19 1014.08 1013.93 1013.81 1013.80 1013.96 1014.32 1014.88 1015.62 1016.48 1017.39 1018.28 1019.08 1019.75 1020.27 1020.64 1020.90 1021.06 1021.15 1021.22 1021.29 1021.37 1021.47 1021.59 1021.74 1021.92 1022.13 1022.36 1022.62
1012.01 1012.79 1013.66 1014.53 1015.29 1015.85 1016.18 1016.24 1016.07 1015.73 1015.31 1014.91 1014.60 1014.43 1014.41 1014.53 1014.74 1014.96 1015.15 1015.25 1015.25 1015.18 1015.07 1014.98 1014.99 1015.15 1015.49 1016.01 1016.68 1017.47 1018.29 1019.11 1019.84 1020.47 1020.96 1021.33 1021.59 1021.76 1021.87 1021.95 1022.03 1022.11 1022.21 1022.33 1022.47 1022.63 1022.82 1023.02 1023.24
1012.01 1012.83 1013.73 1014.61 1015.38 1015.97 1016.33 1016.45 1016.36 1016.11 1015.79 1015.49 1015.28 1015.19 1015.24 1015.40 1015.63 1015.88 1016.09 1016.22 1016.27 1016.25 1016.19 1016.15 1016.20 1016.37 1016.69 1017.16 1017.77 1018.47 1019.21 1019.93 1020.59 1021.16 1021.61 1021.96 1022.21 1022.40 1022.53 1022.64 1022.74 1022.84 1022.96 1023.09 1023.22 1023.37 1023.53 1023.70 1023.88
1012.22 1013.02 1013.88 1014.71 1015.44 1016.00 1016.35 1016.51 1016.48 1016.33 1016.13 1015.95 1015.85 1015.85 1015.97 1016.18 1016.44 1016.71 1016.94 1017.11 1017.20 1017.23 1017.24 1017.26 1017.35 1017.54 1017.86 1018.30 1018.85 1019.46 1020.11 1020.74 1021.32 1021.82 1022.23 1022.56 1022.81 1023.00 1023.16 1023.29 1023.42 1023.56 1023.69 1023.83 1023.97 1024.10 1024.24 1024.36 1024.48
1012.65 1013.37 1014.13 1014.86 1015.48 1015.97 1016.29 1016.46 1016.49 1016.44 1016.36 1016.31 1016.32 1016.42 1016.61 1016.87 1017.16 1017.45 1017.71 1017.91 1018.05 1018.14 1018.21 1018.30 1018.44 1018.67 1018.99 1019.41 1019.90 1020.45 1021.01 1021.56 1022.05 1022.49 1022.85 1023.16 1023.40 1023.61 1023.78 1023.94 1024.10 1024.26 1024.41 1024.55 1024.68 1024.79 1024.88 1024.95 1025.01
1013.26 1013.88 1014.49 1015.07 1015.56 1015.94 1016.21 1016.37 1016.45 1016.49 1016.53 1016.60 1016.73 1016.93 1017.19 1017.50 1017.83 1018.14 1018.41 1018.65 1018.83 1018.98 1019.13 1019.29 1019.49 1019.76 1020.09 1020.50 1020.95 1021.44 1021.92 1022.39 1022.81 1023.19 1023.51 1023.79 1024.02 1024.23 1024.42 1024.60 1024.77 1024.93 1025.09 1025.22 1025.32 1025.40 1025.45 1025.45 1025.43
Thickness
5783 5786 5785 5776 5753 5731 5734 5750 5763 5771 5778 5789 5794 5791 5785 5782 5775 5774 5797 5805 5802 5794 5788 5782 5778 5775 5774 5772 5771 5770 5768 5767 5765 5763 5762 5760 5758 5757 5755 5753 5752 5750 5748 5747 5745 5744 5742 5741 5741
5780 5782 5774 5757 5732 5718 5730 5752 5761 5771 5784 5794 5795 5793 5787 5787 5793 5792 5795 5800 5799 5792 5785 5780 5776 5773 5771 5770 5768 5767 5765 5763 5761 5760 5758 5756 5755 5753 5752 5750 5748 5747 5745 5743 5742 5740 5739 5739 5738
5778 5777 5756 5737 5724 5721 5738 5756 5763 5776 5789 5791 5789 5792 5788 5787 5792 5793 5798 5798 5795 5788 5783 5779 5775 5772 5769 5767 5765 5764 5762 5760 5758 5756 5755 5753 5751 5750 5749 5747 5745 5743 5742 5740 5738 5737 5736 5736 5735
5768 5757 5743 5727 5725 5736 5748 5760 5767 5772 5783 5790 5788 5784 5790 5798 5797 5798 5799 5796 5790 5785 5780 5777 5773 5770 5768 5766 5763 5762 5760 5758 5756 5754 5752 5750 5749 5747 5746 5744 5742 5740 5738 5736 5735 5733 5733 5733 5731
5757 5740 5725 5715 5727 5744 5755 5765 5769 5767 5773 5784 5786 5779 5782 5794 5800 5799 5796 5793 5788 5782 5779 5776 5772 5769 5767 5764 5762 5760 5758 5756 5754 5752 5750 5748 5746 5744 5742 5741 5739 5737 5735 5733 5731 5730 5730 5729 5728
5735 5727 5708 5706 5726 5747 5758 5768 5769 5768 5771 5781 5784 5777 5778 5789 5793 5793 5793 5789 5786 5782 5778 5774 5771 5768 5765 5763 5761 5758 5756 5754 5752 5750 5748 5746 5744 5742 5740 5738 5736 5734 5732 5730 5728 5727 5727 5726 5725
5724 5715 5708 5716 5727 5740 5758 5769 5768 5767 5769 5778 5786 5775 5775 5782 5788 5791 5789 5785 5782 5779 5776 5773 5770 5766 5764 5762 5760 5757 5755 5753 5751 5748 5746 5744 5741 5740 5738 5736 5734 5731 5729 5727 5725 5724 5724 5723 5721
5726 5713 5711 5714 5724 5738 5759 5766 5770 5769 5771 5787 5789 5774 5771 5781 5786 5786 5783 5779 5777 5775 5773 5771 5769 5766 5763 5761 5758 5756 5754 5751 5749 5747 5744 5742 5740 5738 5736 5734 5732 5730 5727 5725 5723 5722 5721 5720 5719
5724 5703 5701 5714 5724 5740 5755 5757 5765 5775 5776 5783 5788 5788 5789 5789 5784 5779 5775 5773 5772 5772 5771 5770 5768 5765 5763 5760 5758 5755 5753 5750 5748 5745 5743 5740 5738 5736 5734 5732 5730 5728 5725 5723 5721 5719 5718 5717 5716
5710 5694 5706 5724 5734 5741 5748 5751 5759 5765 5766 5774 5780 5787 5790 5786 5780 5775 5772 5770 5770 5770 5770 5769 5767 5765 5762 5760 5757 5754 5752 5749 5747 5744 5742 5739 5737 5735 5732 5730 5728 5726 5724 5722 5720 5718 5716 5715 5713
5706 5703 5715 5726 5735 5739 5741 5748 5758 5757 5758 5771 5776 5780 5783 5781 5777 5774 5773 5773 5772 5772 5771 5769 5768 5765 5762 5760 5757 5754 5751 5748 5746 5743 5741 5738 5736 5733 5731 5729 5727 5725 5722 5720 5718 5715 5713 5712 5711
5701 5709 5717 5727 5736 5737 5739 5745 5750 5756 5767 5784 5788 5787 5784 5780 5777 5776 5774 5773 5771 5770 5770 5770 5768 5766 5763 5760 5757 5754 5751 5748 5745 5743 5740 5737 5734 5732 5729 5727 5725 5723 5720 5718 5715 5713 5711 5710 5709
5698 5707 5718 5725 5729 5732 5737 5740 5747 5757 5777 5787 5789 5787 5785 5782 5779 5777 5777 5775 5773 5770 5770 5770 5769 5766 5763 5760 5758 5755 5752 5749 5745 5742 5740 5737 5734 5731 5728 5726 5723 5721 5719 5716 5714 5711 5710 5708 5707
5701 5707 5716 5723 5727 5733 5735 5741 5744 5760 5777 5781 5782 5782 5782 5781 5778 5776 5775 5773 5772 5772 5771 5770 5768 5766 5763 5761 5758 5756 5752 5749 5745 5742 5739 5736 5733 5730 5727 5725 5722 5720 5717 5715 5712 5710 5707 5705 5704
5701 5704 5710 5720 5726 5732 5733 5732 5743 5765 5771 5772 5775 5777 5777 5777 5777 5777 5778 5776 5775 5774 5773 5771 5770 5767 5764 5762 5758 5754 5751 5748 5745 5742 5739 5735 5732 5729 5726 5723 5720 5718 5715 5713 5710 5707 5705 5702 5700
5693 5695 5696 5716 5727 5732 5727 5724 5750 5764 5764 5764 5768 5771 5772 5774 5776 5777 5778 5776 5776 5775 5774 5772 5771 5767 5765 5762 5758 5754 5750 5747 5743 5740 5737 5734 5731 5727 5724 5721 5718 5715 5712 5709 5706 5703 5700 5697 5695
5676 5678 5691 5706 5724 5728 5725 5726 5746 5758 5758 5758 5762 5766 5768 5769 5771 5775 5777 5776 5776 5776 5774 5772 5771 5768 5765 5761 5758 5753 5749 5744 5740 5736 5733 5730 5727 5724 5721 5718 5715 5712 5708 5705 5702 5698 5695 5691 5688
5666 5677 5686 5695 5713 5719 5718 5722 5736 5747 5751 5753 5757 5760 5763 5765 5769 5772 5773 5774 5773 5774 5773 5771 5769 5767 5763 5759 5754 5750 5746 5741 5736 5731 5728 5726 5723 5719 5716 5712 5709 5706 5703 5699 5696 5692 5688 5685 5682
5674 5678 5680 5692 5710 5713 5713 5715 5724 5735 5741 5743 5746 5750 5755 5760 5766 5767 5769 5770 5769 5768 5767 5767 5765 5764 5760 5756 5751 5745 5739 5735 5731 5727 5724 5720 5716 5713 5710 5707 5703 5700 5697 5693 5690 5685 5681 5676 5674
5670 5672 5678 5691 5707 5711 5708 5706 5717 5726 5729 5734 5739 5744 5748 5752 5755 5759 5761 5760 5760 5760 5761 5761 5761 5760 5758 5755 5750 5744 5737 5730 5725 5720 5714 5711 5708 5705 5702 5699 5695 5692 5688 5684 5682 5678 5673 5668 5665
5667 5671 5679 5686 5696 5705 5704 5697 5706 5714 5721 5726 5730 5735 5739 5742 5745 5748 5750 5752 5755 5754 5755 5756 5756 5756 5754 5750 5744 5737 5730 5723 5717 5711 5705 5702 5700 5696 5692 5690 5686 5683 5680 5676 5673 5671 5667 5661 5655
5660 5680 5683 5686 5681 5678 5693 5675 5690 5701 5707 5712 5716 5721 5727 5732 5736 5739 5741 5744 5746 5747 5749 5750 5751 5750 5748 5744 5738 5732 5724 5715 5708 5701 5695 5691 5688 5686 5683 5680 5677 5673 5670 5667 5664 5661 5659 5655 5648
5670 5684 5684 5685 5680 5676 5681 5673 5678 5694 5696 5700 5706 5711 5716 5721 5726 5729 5732 5735 5737 5738 5741 5742 5742 5741 5739 5736 5731 5724 5716 5707 5699 5692 5686 5680 5676 5674 5671 5669 5666 5663 5659 5656 5652 5650 5647 5644 5639
5680 5680 5676 5668 5666 5663 5676 5670 5672 5685 5691 5694 5697 5701 5706 5711 5716 5718 5721 5724 5725 5727 5729 5731 5731 5729 5727 5724 5719 5713 5705 5696 5689 5681 5674 5669 5664 5661 5658 5656 5653 5650 5647 5643 5640 5637 5633 5629 5626
5673 5658 5646 5651 5646 5654 5672 5669 5669 5683 5689 5689 5689 5691 5695 5700 5703 5705 5707 5708 5709 5711 5714 5716 5715 5712 5711 5708 5702 5697 5691 5685 5678 5669 5663 5657 5652 5647 5644 5642 5639 5635 5632 5629 5626 5622 5618 5615 5611
5667 5662 5646 5645 5646 5649 5662 5661 5667 5677 5681 5683 5683 5684 5686 5688 5690 5690 5691 5692 5694 5695 5697 5698 5697 5694 5693 5690 5684 5679 5675 5669 5662 5656 5650 5644 5638 5634 5631 5628 5624 5621 5618 5614 5610 5606 5602 5598 5594
5666 5662 5668 5655 5654 5644 5649 5657 5662 5669 5670 5672 5673 5674 5674 5675 5676 5676 5676 5677 5678 5679 5679 5679 5679 5676 5672 5669 5667 5662 5656 5650 5645 5640 5634 5628 5623 5619 5616 5613 5609 5605 5601 5597 5594 5589 5584 5581 5577
5673 5666 5653 5648 5640 5637 5642 5648 5652 5658 5659 5660 5660 5660 5660 5661 5661 5661 5660 5660 5661 5661 5661 5661 5659 5656 5652 5650 5648 5644 5638 5632 5628 5623 5617 5612 5607 5603 5600 5596 5592 5587 5583 5579 5576 5571 5567 5563 5559
5661 5659 5649 5641 5644 5634 5629 5635 5655 5656 5654 5651 5649 5648 5648 5647 5646 5644 5643 5643 5643 5643 5641 5640 5639 5638 5634 5630 5628 5625 5619 5614 5609 5604 5600 5595 5590 5586 5582 5578 5574 5570 5565 5561 5557 5553 5549 5546 5541
5659 5654 5649 5643 5636 5634 5631 5632 5649 5650 5647 5643 5639 5636 5634 5633 5631 5629 5628 5627 5627 5625 5624 5622 5620 5618 5615 5611 5609 5605 5600 5596 5592 5587 5582 5578 5573 5568 5564 5560 5555 5551 5547 5543 5539 5535 5531 5527 5523